Regional Weather Roundup
Issued by NWS

Home | Current Version | Previous Version | Graphics & Text | Print | Product List | Glossary On
Versions: 1 2 3 4 5 6 7 8 9 10 11 12 13 14 15 16 17 18 19 20 21 22 23 24 25 26 27 28 29 30 31 32 33 34 35 36 37 38 39 40 41 42 43 44 45 46 47 48 49 50
075
ASUS43 KBIS 261802
RWRND

NORTH DAKOTA REGIONAL WEATHER ROUNDUP
NATIONAL WEATHER SERVICE BISMARCK ND
1200 PM CST SUN FEB 26 2017

NOTE: "FAIR" INDICATES FEW OR NO CLOUDS BELOW 12,000 FEET WITH NO
SIGNIFICANT WEATHER AND/OR OBSTRUCTIONS TO VISIBILITY.


NDZ001>003-009>011-017-261900-
NORTHWEST NORTH DAKOTA

CITY           SKY/WX    TMP DP  RH WIND       PRES   REMARKS
WILLISTON      PTSUNNY   21  14  74 CALM      29.76R
6HR MIN TEMP:  10; 6HR MAX TEMP:  21; 6HR PCP:  0.01;

MINOT          FAIR      19   9  65 W6        29.77S WCI  11
MINOT AFB      SUNNY     17  10  73 W3        29.77S
$$

NDZ018>021-031>035-040>046-261900-
SOUTHWEST NORTH DAKOTA

CITY           SKY/WX    TMP DP  RH WIND       PRES   REMARKS
BISMARCK       CLOUDY    18  12  77 SE5       29.80S WCI  11
6HR MIN TEMP:  13; 6HR MAX TEMP:  20;

DICKINSON      PTSUNNY   27  21  78 W17       29.67R WCI  14
GARRISON         N/A     17  11  77 CALM      29.76S
6HR MIN TEMP:  -1; 6HR MAX TEMP:  17; 6HR PCP:  0.01;

HETTINGER ARPT PTSUNNY   32  23  69 W18       29.72R
$$

NDZ004>008-012>016-024-026-027-054-261900-
NORTHEAST NORTH DAKOTA

CITY           SKY/WX    TMP DP  RH WIND       PRES   REMARKS
GRAND FORKS    SUNNY     16   1  51 W8        29.86S WCI   5
GRND FRKS AFB  SUNNY     16   4  59 W7        29.86R WCI   6
DEVILS LAKE    FAIR       6   4  91 W9        29.83R WCI  -8
$$

NDZ022-023-025-028>030-036>039-047>053-261900-
SOUTHEAST NORTH DAKOTA

CITY           SKY/WX    TMP DP  RH WIND       PRES   REMARKS
FARGO          PTSUNNY   18   9  68 MISG      29.87R
6HR MIN TEMP:   9; 6HR MAX TEMP:  18; 6HR PCP: TRACE;

JAMESTOWN      FAIR      19  10  68 VRB3      29.81R
$$





USA.gov is the U.S. government's official web portal to all federal, state and local government web resources and services.